Theta_e
292 292 292 291 291 290 290 288 285 281 281 286 285 289 290 291 292 291 289 292 293 294 294 294 295 295 296 296 297 297 298 299 299 299 300 301 302 303
292 291 290 290 289 288 288 287 286 284 281 285 285 288 289 290 291 289 289 292 292 293 293 294 294 294 295 295 295 296 297 298 298 298 299 300 301 302
292 291 289 289 287 286 286 285 285 285 281 284 286 288 286 286 287 288 289 289 289 292 293 293 293 293 294 294 295 295 296 297 297 297 297 298 300 299
291 290 289 289 286 285 285 283 283 284 283 281 285 284 284 286 286 286 288 289 288 291 293 293 293 292 293 293 293 294 295 295 296 296 296 296 297 297
291 289 289 287 284 284 284 283 283 286 284 282 281 283 284 286 285 286 287 287 288 291 291 291 292 292 292 292 293 293 294 294 294 294 294 294 294 295
291 290 288 286 284 283 284 282 284 282 282 281 281 282 283 285 285 284 283 285 285 287 289 289 291 291 291 292 292 292 293 293 294 294 293 293 292 293
291 290 288 288 288 287 284 283 282 281 282 281 281 281 282 282 282 284 283 283 283 284 285 285 286 286 287 289 290 291 292 292 293 294 293 293 292 292
289 287 286 286 286 287 288 288 286 282 281 280 281 280 281 282 283 283 282 280 279 284 283 283 285 284 285 287 290 290 291 292 292 293 293 292 292 291
288 287 285 285 285 284 285 286 286 286 286 281 280 281 281 282 282 281 280 280 280 282 283 281 284 282 285 287 289 290 291 291 292 292 292 292 291 290
287 285 283 283 285 284 283 282 282 282 283 284 282 282 283 283 283 282 281 280 281 282 283 279 282 282 284 286 289 290 290 291 291 291 292 291 290 289
286 285 283 283 287 288 283 282 281 281 284 285 285 285 285 284 284 281 278 278 277 279 281 281 281 282 283 284 286 289 289 290 290 291 291 289 288 289
285 285 286 285 287 287 282 281 279 279 279 280 280 281 281 281 283 280 279 277 278 277 280 279 280 281 279 279 284 286 287 289 290 291 289 288 288 287
283 282 283 287 288 287 285 281 281 280 279 277 277 277 278 279 279 279 280 279 277 277 281 282 280 281 280 280 284 285 286 288 289 287 287 287 287 287
282 282 281 287 287 286 282 284 282 279 276 276 276 276 276 277 277 279 279 280 280 279 281 281 280 280 279 279 280 284 286 288 288 285 285 286 286 287
282 283 286 285 284 281 283 282 278 277 276 275 275 275 276 277 278 278 279 279 279 280 281 281 280 280 280 280 280 282 284 286 287 286 286 284 284 285
282 281 280 279 279 278 278 278 279 277 275 274 274 275 276 277 276 277 277 277 276 276 279 280 280 279 279 280 281 282 284 283 286 286 286 286 285 285
280 279 278 277 277 277 277 277 277 276 275 275 274 275 275 275 276 277 276 276 274 274 275 277 279 279 280 280 280 282 283 284 286 287 286 285 286 286
280 278 275 276 277 276 276 276 276 275 276 276 275 275 274 274 275 276 276 275 273 274 274 275 276 276 277 280 285 282 283 284 285 286 287 285 284 287
279 278 277 276 276 276 276 276 275 275 276 274 274 274 274 274 275 275 275 274 273 273 274 275 274 274 272 272 280 285 281 283 284 284 286 285 284 286
279 278 277 277 277 276 276 276 275 275 274 274 273 273 272 273 274 273 273 272 272 273 272 273 273 273 272 274 276 280 284 282 282 283 284 285 287 286
279 278 278 277 277 277 276 275 275 274 273 273 272 272 270 272 272 272 272 271 272 272 271 271 273 276 276 278 275 277 280 283 284 284 284 283 282 283
279 278 278 277 277 276 274 271 271 270 270 270 268 268 268 271 271 271 271 271 271 272 271 273 274 274 274 274 272 274 277 279 283 285 286 284 282 279
278 278 277 276 276 275 275 272 271 269 269 268 268 269 262 270 272 272 271 272 272 271 271 271 272 273 272 273 272 273 275 275 278 280 282 285 285 285
Wind_Speed
7 7 7 5 6 5 5 3 2 3 3 3 4 5 9 9 12 11 12 20 24 23 24 27 31 31 31 32 34 32 32 33 31 32 31 30 31 31
5 8 7 5 6 5 4 4 3 1 1 3 3 9 9 8 12 12 12 20 20 23 24 26 29 30 31 33 33 33 33 34 31 32 31 30 30 29
6 8 9 6 5 4 3 3 3 2 2 4 3 7 7 9 10 11 12 11 10 24 25 28 26 28 31 30 31 32 31 31 31 32 31 30 30 31
7 8 7 6 6 4 4 3 2 2 0 7 7 7 9 11 11 12 10 10 10 19 27 25 26 30 29 31 31 30 31 29 30 30 31 31 32 32
7 8 7 6 5 3 3 3 2 4 1 2 6 4 7 8 11 9 12 13 10 22 22 22 27 28 30 30 29 31 30 30 32 30 29 28 29 31
8 9 7 6 5 3 4 4 5 4 3 5 5 7 6 11 9 13 13 11 13 12 15 18 23 28 28 28 29 30 31 34 33 31 31 28 28 29
9 9 7 8 10 7 2 4 4 3 4 6 6 8 9 11 14 13 13 14 15 2 13 12 13 15 16 22 25 31 33 33 32 32 32 30 29 29
9 7 6 7 7 9 9 8 5 4 6 4 5 9 10 11 11 12 11 14 15 7 17 14 12 14 16 15 31 33 32 32 32 31 31 30 30 28
7 6 5 4 5 3 5 5 6 9 5 3 7 8 10 12 13 14 14 13 12 13 14 16 12 15 16 17 30 31 31 33 32 31 31 32 30 26
7 6 5 4 4 4 4 5 6 6 6 5 5 8 8 11 10 11 14 16 13 9 11 11 14 15 17 14 27 27 33 33 32 34 31 31 29 29
6 5 5 4 6 9 5 7 6 7 7 11 11 13 15 17 16 9 11 13 16 16 7 12 13 15 15 12 12 30 31 29 33 32 28 33 31 29
4 5 7 6 9 9 6 5 7 6 9 13 13 14 12 10 16 9 9 11 11 11 8 14 14 15 9 4 17 15 14 27 27 25 32 29 29 13
4 3 2 7 9 10 9 6 6 5 6 5 5 5 8 8 8 8 9 9 12 11 13 12 13 13 10 17 12 16 16 15 12 18 25 27 28 21
5 3 2 7 11 10 6 10 9 3 2 4 5 6 8 9 10 9 10 8 8 13 15 13 12 14 13 15 16 17 15 15 10 14 14 19 23 22
4 5 8 10 10 7 10 9 5 4 4 5 6 6 6 8 10 11 11 11 10 9 11 14 11 14 13 13 15 17 19 16 10 14 14 13 12 12
6 4 6 6 5 4 4 5 4 4 3 3 5 5 5 8 8 9 11 13 12 13 15 16 17 15 12 14 13 13 16 12 15 15 14 12 11 10
5 3 3 2 3 3 2 4 4 3 4 4 5 7 7 8 8 9 9 10 10 14 17 15 19 20 13 13 11 13 16 13 15 16 15 14 13 12
3 4 3 2 3 3 3 3 3 4 4 4 4 5 7 7 9 9 9 10 12 13 13 15 15 16 19 15 4 13 12 14 17 16 15 15 13 15
4 4 4 4 3 3 3 3 1 3 3 3 4 5 6 7 9 9 10 10 12 11 13 12 13 13 16 17 13 20 16 16 16 15 14 16 14 16
4 6 5 4 4 3 3 1 2 2 3 3 4 5 6 7 8 9 9 10 12 11 13 13 13 14 14 13 14 17 25 16 16 16 15 13 14 17
6 6 5 5 4 4 3 2 2 2 3 3 4 4 5 6 6 7 9 11 11 10 13 13 15 21 11 12 13 16 17 29 25 17 17 17 18 12
6 7 6 5 5 4 3 3 2 2 2 2 2 3 3 4 5 7 8 9 10 10 11 11 13 13 13 13 13 19 15 18 24 26 25 26 18 13
7 7 6 5 5 4 4 3 3 2 2 1 2 3 3 4 6 6 7 8 9 10 12 13 12 12 12 13 13 13 19 19 17 17 16 29 29 28
Wind_Direction
83 82 84 71 60 58 59 49 91 6 298 303 321 329 335 332 328 339 331 319 327 322 327 324 323 325 325 326 326 323 323 322 323 319 314 312 311 306
93 93 80 73 66 56 57 54 50 99 291 293 308 316 323 326 329 328 318 323 318 323 324 324 322 322 324 324 320 320 319 324 320 324 318 314 313 312
101 94 82 74 67 61 58 56 42 29 263 290 278 308 319 323 324 321 317 316 325 323 324 324 320 324 322 319 317 316 313 320 322 324 323 317 314 316
102 90 80 74 56 47 53 38 37 322 299 303 310 334 330 326 322 318 322 327 326 323 325 320 323 322 320 319 316 315 319 318 320 316 317 318 314 313
108 98 89 76 54 38 37 18 5 4 265 274 309 324 318 320 324 325 334 329 329 322 318 324 321 319 321 316 319 318 319 320 317 314 315 316 316 312
104 96 89 75 67 47 45 17 8 348 355 350 326 325 314 330 328 337 341 334 325 321 322 324 320 320 320 319 319 319 321 318 317 316 315 317 318 314
109 100 91 83 69 60 63 14 11 5 6 358 343 330 326 339 347 338 332 327 323 311 328 329 327 321 321 323 321 321 319 317 320 318 316 315 315 313
121 118 109 78 63 50 39 32 37 25 13 353 334 328 322 332 336 337 335 336 336 350 329 327 328 321 320 323 320 319 317 321 316 314 315 311 313 315
122 120 94 78 73 59 36 38 32 24 23 302 316 331 316 335 333 335 334 327 316 315 324 321 330 318 318 317 316 315 321 316 316 311 320 319 321 323
108 108 112 90 59 60 37 25 28 15 6 351 327 314 327 332 336 332 325 321 320 322 322 314 327 322 315 313 312 316 317 315 313 320 321 328 330 326
110 111 107 93 51 48 41 33 25 22 359 357 349 347 347 348 352 339 347 338 328 328 326 333 326 319 315 312 318 319 319 316 321 323 339 334 334 331
111 95 99 83 54 51 53 48 36 358 350 342 346 347 345 340 348 346 327 327 326 323 331 325 329 336 313 293 319 321 319 323 329 338 333 335 333 331
129 126 92 67 66 71 65 59 42 353 333 318 317 319 341 343 342 333 325 315 314 301 305 325 320 322 309 316 319 322 328 329 332 335 338 334 332 330
145 150 141 91 89 78 65 55 37 351 311 352 348 349 346 339 330 325 317 301 292 284 302 320 314 321 317 317 324 325 327 333 331 335 333 333 331 326
139 152 120 102 93 71 66 50 33 24 17 11 348 339 324 310 316 329 331 328 310 298 324 325 326 324 320 317 318 324 330 332 328 329 336 332 329 326
124 118 112 110 97 94 59 42 35 20 23 331 327 315 313 340 342 342 338 339 333 339 342 337 337 336 320 319 316 324 335 335 334 328 327 325 326 323
133 97 84 75 75 70 51 48 27 17 20 338 346 346 341 343 342 339 343 338 342 338 336 340 339 334 329 314 325 338 333 335 339 332 331 330 328 332
121 134 123 127 122 105 66 48 26 18 4 349 352 349 341 341 338 343 345 347 341 340 336 337 339 340 342 339 1 336 334 337 338 336 337 335 332 338
145 148 142 146 146 119 94 70 27 9 354 345 354 343 342 340 343 349 345 344 341 338 338 336 342 349 342 337 314 336 338 339 337 340 344 341 331 333
162 156 151 149 141 133 111 97 45 24 14 356 358 346 346 346 346 349 346 341 339 337 335 342 346 343 335 320 313 315 338 347 341 340 343 336 330 304
166 156 151 148 148 132 124 109 95 58 24 2 1 350 334 342 343 343 340 337 335 342 340 339 331 325 315 317 339 340 339 344 344 341 348 346 345 339
165 156 153 150 147 139 136 131 118 74 25 4 320 310 316 328 345 340 341 339 339 340 329 323 330 338 344 348 337 336 336 339 344 340 355 358 349 348
165 156 154 150 147 144 139 132 106 83 57 323 312 324 316 336 346 342 338 340 336 341 341 336 339 345 344 345 334 336 337 347 346 343 348 354 350 347